STARLINK-6128, 57132

Orbit data source: Space-Track

STARLINK-6128, 57132 is a payload satellite owned by SpaceX/Seattle (US) in LEO that was launched on Fri, 23 Jun 2023 UTC via an FALCON 9 launch vehicle from the Air Force Eastern Test Range (AFETR). Payload-class satellites include a variety of spacecraft equipped with specific instruments for various scientific and technological missions. These include communications satellites like Starlink; space stations such as the ISS; scientific satellites like the Hubble; Earth observation satellites from companies like Planet Labs, Umbra, and HawkEye 360; GPS; miniature CubeSats for education and research; and military/defense satellites.

Loading next visibility...
Identifier
57132, 2023-090AH
Orbit
LEO
Country
Flag of USUS
Related business
Manufacturer
SpaceX/Seattle
Mission
Operational Commercial Communications
Bus & Motor
STARLINK, Unknown motor
Mass
305 kg wet, ~290 kg dry
Launch date (UTC)
2023-06-23 (3 years ago)
Launch vehicle
FALCON 9
Launch site
Air Force Eastern Test Range (AFETR)
Object type
Payload
Rocket body
Debris
Shape & HBR
Box + 1 Pan, 10.1 m
Radar Cross Section
11.087 m², Large (>1 m²)

Expand to show TLE details & history
Last TLE update: 2 days ago

TLE from 2 days ago
0 STARLINK-6128
1 57132U 23090AH  26171.40937403  .00000349  00000-0  22226-4 0  9993
2 57132  43.0065  61.3021 0001192 268.6163  91.4552 15.27576339165855
Epoch: 2026-06-20T09:49Z
TLE epoch observation values (Epoch: 2026-06-20T09:49:29.916Z)
Latitude
-0.00002°
Longitude
5.30302°
Altitude
482.857 km
Speed
7.626 km/s
True Right ascension
04h 05m 12s
True Declination
0° 00' 00"
Sunlit
Object was in daylight at epoch
Visualization orbit readout
Latitude
Unknown
Longitude
Unknown
Altitude
Unknown
Speed
Unknown
Apparent Right ascension
Unknown
Apparent Declination
Unknown
Sunlit
N/A
Visualization observer readout
Local Sidereal Time
21:55:00
Azimuth
Unknown
Elevation
Unknown
Doppler factor
Unknown
Orbital elements
Apogee altitude
485.822 km
Perigee altitude
484.186 km
Semi-major axis
6,863.141 km
Eccentricity
0.00012
Inclination
43.0065°
RAAN
61.3021°
Arg. of periapsis
268.6163°
True anomaly
91.46885°
Mean anomaly
91.4552°
Eccentric anomaly
91.46203°
Mean motion
3.81732 °/min
Orbital period
94.31 mins
BSTAR
0.000022226
Loading maneuver chart data...
Computing Atmospheric mass density...
Loading historical data...
Loading historical data...
Loading historical data...
Loading historical data...
Loading historical data...
Loading historical data...
Loading historical data...

Documentation

Showing up to 5 results
|